Preview of NWS' New Version of Forecast
This preview is not operational and should not be used for support decisions.

Regional Weather Roundup (RWR)

Issued by National Weather Service (NWS)

                            
000
ASUS43 KDMX 191101
RWRIA 

WEATHER ROUNDUP FOR IOWA
NATIONAL WEATHER SERVICE DES MOINES IA
600 AM CDT FRI APR 19 2019

NOTE: "FAIR" INDICATES FEW OR NO CLOUDS BELOW 12,000 FEET WITH NO
SIGNIFICANT WEATHER AND/OR OBSTRUCTIONS TO VISIBILITY.

* - THESE STATIONS ARE NOT NWS STATIONS...THUS NOT UNDER NWS
QUALITY CONTROL.  THEY ALSO DO NOT REPORT WEATHER SUCH 
AS PRECIPITATION OR FOG.  

IAZ001>003-012>014-020>022-031>034-043>046-191200-
   NORTHWEST IOWA
  
CITY           SKY/WX    TMP DP  RH WIND       PRES   REMARKS
CARROLL *      CLEAR     37  37 100 NW13      30.04R WCI  29          
CHEROKEE *     CLEAR     33  33 100 NE6       30.06F WCI  27          
DENISON *      CLEAR     34  34 100 CALM      30.08R                  
LE MARS *      CLEAR     30  30 100 CALM      30.08R                  
SHELDON *      PTCLDY    30  30 100 NW3       30.05S                  
SIOUX CITY     CLEAR     32  30  92 W7        30.08R WCI  26          
SPENCER        CLEAR     32  29  88 NW8       30.05S WCI  25          
STORM LAKE *   CLEAR     34  34 100 N7        30.03R WCI  28          
$$
 
IAZ055>058-069>071-079>083-090>094-191200-
   SOUTHWEST IOWA
  
CITY           SKY/WX    TMP DP  RH WIND       PRES   REMARKS
ATLANTIC *     CLEAR     34  34 100 NE5       30.04R WCI  30          
AUDUBON *      CLEAR     36  32  87 CALM      30.05R                  
CLARINDA *     PTCLDY    37  36  93 N10       30.05R WCI  30          
COUNCIL BLFS * CLEAR     39  39 100 NW8       30.06R WCI  34          
CRESTON *      CLEAR     39  39 100 N10       30.00R WCI  32          
HARLAN  *      CLEAR     34  34 100 N6        30.05R WCI  29          
LAMONI         CLEAR     41  36  82 N12       29.98R                  
RED OAK *      CLEAR     37  37 100 N9        30.05R WCI  31          
SHENANDOAH *   CLEAR     41  37  87 NE8       30.04R                  
$$
 
IAZ047>049-059>061-072>074-084-191200-
   CENTRAL IOWA
  
CITY           SKY/WX    TMP DP  RH WIND       PRES   REMARKS
AMES           PTCLDY    38  35  89 N8        30.01R WCI  32          
ANKENY *       CLEAR     39  36  87 N9        30.01R WCI  33          
BOONE *        PTCLDY    37  37 100 N13       30.01R WCI  29          
CHARITON *     CLEAR     39  37  93 N12       29.97R WCI  32          
DES MOINES     PTCLDY    41  35  79 N7        30.00R                  
GRINNELL*      CLEAR     37  35  92 N9        29.98R WCI  30          
KNOXVILLE *    PTCLDY    41  41 100 N13       29.97R                  
MARSHALLTOWN   CLEAR     35  34  96 N12       29.98R WCI  27          
NEWTON *       CLEAR     37  37 100 N10       29.98R WCI  30          
PELLA *        PTCLDY    37  34  90 NW6       29.99R WCI  32          
PERRY *        FAIR      36  36  99 NW8       30.03R WCI  30          
$$
 
IAZ004>006-015-016-023>025-035-036-191200-
   NORTH CENTRAL IOWA
  
CITY           SKY/WX    TMP DP  RH WIND       PRES   REMARKS
ALGONA *       CLEAR     34  34 100 NW6       30.03R WCI  29          
CLARION *      CLEAR     34  34 100 N8        30.03R WCI  27          
ESTHERVILLE    PTCLDY    33  31  92 NW9       30.04R WCI  25          
FORT DODGE *   CLEAR     36  34  92 NW7       30.04R WCI  30          
MASON CITY     CLEAR     32  31  96 NW9       30.03R WCI  24          
FOREST CITY *  FAIR      37  36  93 NW3       30.03R                  
IOWA FALLS *   FAIR      37  36  93 N12       30.01R WCI  30          
$$

IAZ007>011-017>019-026>030-037>042-050>054-066-191200-
   NORTHEAST IOWA
  
CITY           SKY/WX    TMP DP  RH WIND       PRES   REMARKS
CEDAR RAPIDS   FAIR      38  36  92 N12       29.92R WCI  30          
CHARLES CITY * FAIR      36  34  93 N10       30.01R WCI  28          
CLINTON *      CLOUDY    42  35  76 N14       29.89R                  
DECORAH *      FAIR      37  34  87 N7        29.97R WCI  32          
DUBUQUE        FAIR      39  34  82 N16       29.90R WCI  30          
MONTICELLO *   FAIR      37  37 100 N10       29.93R WCI  30          
OELWEIN *      FAIR      37  37 100 N10       29.97R WCI  30          
WATERLOO       FAIR      38  35  89 N12       29.98R WCI  30          
$$
 
IAZ064-065-067-068-078-191200-
   EAST CENTRAL IOWA
  
CITY           SKY/WX    TMP DP  RH WIND       PRES   REMARKS
DAVENPORT      CLOUDY    43  35  73 N15       29.90R                  
IOWA CITY      FAIR      43  36  76 N13G21    29.94R                  
MT. PLEASANT * MOCLDY    41  37  87 N14       29.90R                  
MUSCATINE *    CLOUDY    45  36  70 N12       29.91R                  
QUAD CITIES    CLOUDY    46  36  68 N13G22    29.87R                  
$$
 
IAZ062-063-075>077-085>089-095>099-191200-
   SOUTHEAST IOWA
  
CITY           SKY/WX    TMP DP  RH WIND       PRES   REMARKS
BURLINGTON     CLOUDY    45  34  65 N17G29    29.87R                  
FAIRFIELD *    CLEAR     41  36  81 N13       29.91R                  
FORT MADISON * CLOUDY    45  37  76 N15G21    29.88S                  
KEOKUK *       CLOUDY    45  37  76 N14       29.87R                  
OSKALOOSA *    FAIR      39  35  87 N12       29.95R WCI  31          
CENTERVILLE *  FAIR      39  39 100 NW13      29.96R WCI  32          
OTTUMWA        CLEAR     39  34  82 N12       29.93R WCI  32          
WASHINGTON *   PTCLDY    39  39 100 N13       29.93R WCI  32          
$$

ABBREVIATIONS USED IN REMARKS
   TC - TEMPERATURES IN CELSIUS
  WCI - WIND CHILL INDEX
   HX - HEAT INDEX
  VSB - VISIBILITY  
$$